TimeEST,TemperatureF,Dew PointF,Humidity,Sea Level PressureIn,VisibilityMPH,Wind Direction,Wind SpeedMPH,Gust SpeedMPH,PrecipitationIn,Events,Conditions,WindDirDegrees,DateUTC
12:15 AM,35.6,35.6,100,30.20,2.5,Calm,Calm,-,N/A,,Clear,0,2012-11-22 05:15:00
12:35 AM,37.4,35.6,93,30.20,2.0,Calm,Calm,-,N/A,,Clear,0,2012-11-22 05:35:00
12:55 AM,37.4,35.6,93,30.20,2.0,Calm,Calm,-,N/A,,Clear,0,2012-11-22 05:55:00
1:15 AM,37.4,37.4,100,30.20,1.5,Calm,Calm,-,N/A,,Mist,0,2012-11-22 06:15:00
1:35 AM,35.6,35.6,100,30.19,1.2,Calm,Calm,-,N/A,,Mist,0,2012-11-22 06:35:00
1:55 AM,33.8,33.8,100,30.19,1.8,Calm,Calm,-,N/A,,Mist,0,2012-11-22 06:55:00
2:15 AM,33.8,33.8,100,30.19,2.5,Calm,Calm,-,N/A,,Clear,0,2012-11-22 07:15:00
2:35 AM,33.8,33.8,100,30.19,2.5,Calm,Calm,-,N/A,,Clear,0,2012-11-22 07:35:00
2:55 AM,33.8,32.0,93,30.19,2.0,Calm,Calm,-,N/A,,Clear,0,2012-11-22 07:55:00
3:15 AM,33.8,33.8,100,30.19,1.2,Calm,Calm,-,N/A,,Mist,0,2012-11-22 08:15:00
3:35 AM,33.8,33.8,100,30.19,1.5,Calm,Calm,-,N/A,,Mist,0,2012-11-22 08:35:00
3:55 AM,33.8,33.8,100,30.19,2.0,Calm,Calm,-,N/A,,Clear,0,2012-11-22 08:55:00
4:15 AM,33.8,32.0,93,30.18,1.8,Calm,Calm,-,N/A,,Mist,0,2012-11-22 09:15:00
4:35 AM,32.0,32.0,100,30.18,1.0,SSE,3.5,-,N/A,,Mist,160,2012-11-22 09:35:00
4:55 AM,32.0,32.0,100,30.18,1.0,South,3.5,-,N/A,,Mist,170,2012-11-22 09:55:00
5:15 AM,32.0,32.0,100,30.18,1.8,South,3.5,-,N/A,,Mist,170,2012-11-22 10:15:00
5:35 AM,32.0,32.0,100,30.18,1.0,South,4.6,-,N/A,,Mist,170,2012-11-22 10:35:00
5:55 AM,33.8,32.0,93,30.19,2.5,South,3.5,-,N/A,,Clear,180,2012-11-22 10:55:00
6:15 AM,33.8,32.0,93,30.19,2.5,Calm,Calm,-,N/A,,Clear,0,2012-11-22 11:15:00
6:35 AM,33.8,33.8,100,30.19,3.0,South,4.6,-,N/A,,Clear,170,2012-11-22 11:35:00
6:55 AM,33.8,32.0,93,30.18,3.0,Calm,Calm,-,N/A,,Clear,0,2012-11-22 11:55:00
7:15 AM,35.6,33.8,93,30.18,4.0,South,3.5,-,N/A,,Clear,180,2012-11-22 12:15:00
7:35 AM,35.6,33.8,93,30.18,4.0,Calm,Calm,-,N/A,,Clear,0,2012-11-22 12:35:00
7:55 AM,35.6,33.8,93,30.18,4.0,South,3.5,-,N/A,,Clear,180,2012-11-22 12:55:00
8:15 AM,37.4,35.6,93,30.18,3.0,South,4.6,-,N/A,,Clear,170,2012-11-22 13:15:00
8:35 AM,39.2,37.4,93,30.18,2.0,South,3.5,-,N/A,,Clear,180,2012-11-22 13:35:00
8:55 AM,41.0,37.4,87,30.19,4.0,South,3.5,-,N/A,,Clear,190,2012-11-22 13:55:00
9:15 AM,42.8,39.2,87,30.19,5.0,South,3.5,-,N/A,,Clear,180,2012-11-22 14:15:00
9:35 AM,44.6,41.0,87,30.18,5.0,South,4.6,-,N/A,,Haze,170,2012-11-22 14:35:00
9:55 AM,48.2,41.0,76,30.17,7.0,South,5.8,-,N/A,,Clear,180,2012-11-22 14:55:00
10:15 AM,50.0,42.8,76,30.17,7.0,South,4.6,-,N/A,,Clear,190,2012-11-22 15:15:00
10:35 AM,51.8,42.8,71,30.17,10.0,SSW,10.4,-,N/A,,Clear,210,2012-11-22 15:35:00
10:55 AM,53.6,42.8,67,30.16,10.0,SSW,8.1,-,N/A,,Clear,200,2012-11-22 15:55:00
11:15 AM,55.4,41.0,58,30.16,10.0,SSW,11.5,17.3,N/A,,Clear,210,2012-11-22 16:15:00
11:35 AM,57.2,41.0,55,30.14,10.0,SSW,12.7,18.4,N/A,,Clear,200,2012-11-22 16:35:00
11:55 AM,59.0,41.0,51,30.13,10.0,SSW,17.3,20.7,N/A,,Clear,210,2012-11-22 16:55:00
12:15 PM,59.0,41.0,51,30.12,10.0,SSW,15.0,23.0,N/A,,Clear,200,2012-11-22 17:15:00
12:35 PM,59.0,41.0,51,30.11,10.0,SSW,16.1,20.7,N/A,,Clear,210,2012-11-22 17:35:00
12:55 PM,59.0,41.0,51,30.10,10.0,SSW,15.0,21.9,N/A,,Clear,210,2012-11-22 17:55:00
1:15 PM,60.8,41.0,48,30.09,10.0,SSW,11.5,-,N/A,,Clear,200,2012-11-22 18:15:00
1:35 PM,60.8,41.0,48,30.08,10.0,SW,16.1,19.6,N/A,,Clear,220,2012-11-22 18:35:00
1:55 PM,60.8,41.0,48,30.07,10.0,SW,12.7,-,N/A,,Clear,220,2012-11-22 18:55:00
2:15 PM,60.8,41.0,48,30.07,10.0,SSW,12.7,17.3,N/A,,Clear,210,2012-11-22 19:15:00
2:35 PM,60.8,41.0,48,30.06,10.0,SW,9.2,-,N/A,,Clear,220,2012-11-22 19:35:00
2:55 PM,60.8,41.0,48,30.06,10.0,SSW,12.7,16.1,N/A,,Clear,210,2012-11-22 19:55:00
3:15 PM,60.8,39.2,45,30.05,10.0,SW,12.7,-,N/A,,Clear,220,2012-11-22 20:15:00
3:35 PM,60.8,39.2,45,30.05,10.0,SSW,11.5,18.4,N/A,,Clear,210,2012-11-22 20:35:00
3:55 PM,60.8,39.2,45,30.05,10.0,SSW,13.8,17.3,N/A,,Clear,210,2012-11-22 20:55:00
4:15 PM,59.0,39.2,48,30.05,10.0,SSW,11.5,17.3,N/A,,Clear,200,2012-11-22 21:15:00
4:35 PM,59.0,41.0,51,30.04,10.0,SSW,9.2,-,N/A,,Clear,200,2012-11-22 21:35:00
4:55 PM,57.2,41.0,55,30.03,7.0,South,6.9,-,N/A,,Clear,190,2012-11-22 21:55:00
5:15 PM,55.4,41.0,58,30.03,10.0,South,8.1,-,N/A,,Clear,190,2012-11-22 22:15:00
5:35 PM,55.4,41.0,58,30.02,10.0,South,8.1,-,N/A,,Scattered Clouds,190,2012-11-22 22:35:00
5:55 PM,55.4,39.2,54,30.02,10.0,South,6.9,-,N/A,,Overcast,190,2012-11-22 22:55:00
6:15 PM,55.4,39.2,54,30.01,10.0,South,9.2,-,N/A,,Mostly Cloudy,190,2012-11-22 23:15:00
6:35 PM,53.6,39.2,58,30.01,10.0,South,6.9,-,N/A,,Clear,190,2012-11-22 23:35:00
6:55 PM,53.6,41.0,62,30.01,10.0,SSW,5.8,-,N/A,,Clear,200,2012-11-22 23:55:00
7:15 PM,53.6,41.0,62,30.01,10.0,SSW,6.9,-,N/A,,Scattered Clouds,200,2012-11-23 00:15:00
7:35 PM,53.6,41.0,62,30.01,10.0,SSW,6.9,-,N/A,,Scattered Clouds,200,2012-11-23 00:35:00
7:55 PM,53.6,41.0,62,30.01,10.0,SSW,6.9,-,N/A,,Clear,200,2012-11-23 00:55:00
8:15 PM,53.6,41.0,62,30.00,10.0,SSW,8.1,-,N/A,,Clear,200,2012-11-23 01:15:00
8:35 PM,51.8,41.0,67,30.00,10.0,SSW,10.4,-,N/A,,Clear,200,2012-11-23 01:35:00
8:55 PM,51.8,41.0,67,29.99,10.0,SSW,9.2,-,N/A,,Clear,200,2012-11-23 01:55:00
9:15 PM,51.8,41.0,67,29.99,10.0,SSW,9.2,16.1,N/A,,Clear,200,2012-11-23 02:15:00
9:35 PM,51.8,41.0,67,29.98,10.0,SSW,9.2,-,N/A,,Clear,200,2012-11-23 02:35:00
9:55 PM,51.8,41.0,67,29.98,10.0,SSW,10.4,17.3,N/A,,Clear,200,2012-11-23 02:55:00
10:15 PM,51.8,41.0,67,29.97,10.0,SSW,11.5,17.3,N/A,,Clear,200,2012-11-23 03:15:00
10:35 PM,50.0,41.0,71,29.96,10.0,SSW,11.5,17.3,N/A,,Clear,200,2012-11-23 03:35:00
10:55 PM,50.0,41.0,71,29.96,10.0,SSW,12.7,-,N/A,,Clear,210,2012-11-23 03:55:00
11:15 PM,50.0,41.0,71,29.95,10.0,SSW,15.0,19.6,N/A,,Clear,210,2012-11-23 04:15:00
11:35 PM,50.0,41.0,71,29.95,10.0,SSW,10.4,-,N/A,,Scattered Clouds,210,2012-11-23 04:35:00
11:55 PM,51.8,41.0,67,29.94,10.0,SSW,10.4,-,N/A,,Mostly Cloudy,210,2012-11-23 04:55:00